Weather History for Defiance, OH

Change the Weather History Date:

Friday, November 23, 2012

  Actual Average Record
Temperature  
Mean Temperature 42 °F -  
Max Temperature 55 °F 44 °F 69 °F (1999)
Min Temperature 30 °F 27 °F 10 °F (1970)
Degree Days  
Heating Degree Days 22    
Moisture  
Dew Point 33 °F    
Average Humidity 73    
Maximum Humidity 93    
Minimum Humidity 57    
Precipitation  
Precipitation 0.11 in - - ()
Sea Level Pressure  
Sea Level Pressure 29.92 in    
Wind  
Wind Speed 12 mph (WSW)    
Max Wind Speed 16 mph    
Max Gust Speed 32 mph    
Visibility 9 miles    
Events Rain , Snow    
Averages and records for this station are not official NWS values.
T = Trace of Precipitation, MM = Missing Value Source: NWS Daily Summary

Daily Weather History Graph

Daily Weather History Graph

Search for Another Location

Airport:

Trip Planner

Search our weather history database for the weather conditions in past years. The results will help you decide how hot, cold, wet, or windy it might be!

Date:

Astronomy

Nov. 23, 2012 Rise Set
Actual Time 7:35 AM EST 5:12 PM EST
Civil Twilight 7:05 AM EST 5:42 PM EST
Nautical Twilight 6:31 AM EST 6:16 PM EST
Astronomical Twilight 5:58 AM EST 6:49 PM EST
Moon 2:28 PM EST 2:51 AM EST
Length of Visible Light 10h 36m
Length of Day
9h 36m
Waxing Gibbous, 79% of the Moon is Illuminated
Nov 23
Waxing Gibbous
Nov 28
Full
Dec 6
Last Quarter
Dec 13
New
Dec 20
First Quarter

Hourly Weather History & Observations

Time (EST) Temp. Windchill Dew Point Humidity Pressure Visibility Wind Dir Wind Speed Gust Speed Precip Events Conditions
12:53 AM 55.0 °F - 39.9 °F 57% 29.84 in 10.0 mi SSW 15.0 mph 23.0 mph N/A   Overcast
1:46 AM 53.6 °F - 44.6 °F 72% 29.84 in 6.0 mi SW 13.8 mph 27.6 mph 0.01 in Rain Rain
1:53 AM 52.0 °F - 46.0 °F 80% 29.84 in 5.0 mi SW 16.1 mph 24.2 mph 0.03 in Rain Rain
2:22 AM 51.8 °F - 48.2 °F 88% 29.83 in 6.0 mi SW 16.1 mph 26.5 mph 0.03 in Rain Rain
2:53 AM 52.0 °F - 48.9 °F 89% 29.82 in 6.0 mi SW 13.8 mph 21.9 mph 0.07 in Rain Light Rain
3:53 AM 52.0 °F - 50.0 °F 93% 29.81 in 7.0 mi SW 12.7 mph 20.7 mph 0.01 in   Overcast
4:12 AM 53.6 °F - 50.0 °F 88% 29.81 in 8.0 mi WSW 10.4 mph 19.6 mph N/A   Overcast
4:41 AM 53.6 °F - 48.2 °F 82% 29.80 in 8.0 mi WSW 9.2 mph 19.6 mph N/A   Mostly Cloudy
4:53 AM 53.1 °F - 48.9 °F 86% 29.81 in 9.0 mi WSW 11.5 mph 20.7 mph N/A   Overcast
5:11 AM 51.8 °F - 44.6 °F 76% 29.82 in 10.0 mi West 13.8 mph 28.8 mph N/A   Mostly Cloudy
5:18 AM 50.0 °F - 42.8 °F 76% 29.82 in 10.0 mi West 11.5 mph 23.0 mph N/A   Partly Cloudy
5:53 AM 46.0 °F 40.6 °F 39.9 °F 79% 29.85 in 10.0 mi West 11.5 mph 20.7 mph N/A   Partly Cloudy
6:18 AM 44.6 °F 39.2 °F 37.4 °F 76% 29.85 in 10.0 mi WSW 10.4 mph 19.6 mph N/A   Mostly Cloudy
6:48 AM 42.8 °F 37.0 °F 35.6 °F 76% 29.86 in 10.0 mi West 10.4 mph 21.9 mph N/A   Partly Cloudy
6:53 AM 42.1 °F 36.1 °F 35.1 °F 76% 29.87 in 10.0 mi West 10.4 mph 21.9 mph N/A   Scattered Clouds
7:03 AM 42.8 °F 37.0 °F 35.6 °F 76% 29.87 in 10.0 mi WSW 10.4 mph 17.3 mph N/A   Mostly Cloudy
7:53 AM 39.9 °F 32.9 °F 32.0 °F 73% 29.89 in 10.0 mi WSW 11.5 mph 18.4 mph N/A   Overcast
8:53 AM 39.0 °F 31.4 °F 30.9 °F 73% 29.90 in 10.0 mi West 12.7 mph 23.0 mph N/A   Overcast
9:53 AM 39.0 °F 31.8 °F 32.0 °F 76% 29.90 in 10.0 mi WSW 11.5 mph 18.4 mph N/A   Overcast
10:53 AM 37.9 °F 32.1 °F 28.9 °F 70% 29.91 in 10.0 mi West 8.1 mph 21.9 mph N/A   Overcast
11:41 AM 37.4 °F 29.3 °F 28.4 °F 70% 29.90 in 10.0 mi WSW 12.7 mph 25.3 mph N/A   Overcast
11:53 AM 37.9 °F 30.5 °F 28.0 °F 68% 29.91 in 10.0 mi WSW 11.5 mph 29.9 mph N/A   Overcast
12:53 PM 37.0 °F 29.8 °F 25.0 °F 62% 29.91 in 10.0 mi West 10.4 mph 29.9 mph N/A   Overcast
1:39 PM 33.8 °F 25.3 °F 24.8 °F 70% 29.92 in 10.0 mi West 11.5 mph 32.2 mph N/A   Overcast
1:53 PM 34.0 °F 25.5 °F 23.0 °F 64% 29.94 in 7.0 mi West 11.5 mph 27.6 mph 0.00 in Snow Light Snow
2:10 PM 33.8 °F 26.4 °F 23.0 °F 65% 29.94 in 10.0 mi West 9.2 mph 27.6 mph N/A   Overcast
2:53 PM 33.1 °F 25.5 °F 21.9 °F 64% 29.97 in 10.0 mi West 9.2 mph 17.3 mph 0.00 in   Overcast
3:53 PM 33.1 °F 24.4 °F 21.9 °F 64% 30.01 in 10.0 mi West 11.5 mph 23.0 mph N/A   Overcast
4:53 PM 32.0 °F 22.5 °F 21.0 °F 64% 30.04 in 9.0 mi West 12.7 mph 21.9 mph 0.00 in Snow Light Snow
5:53 PM 30.9 °F 21.7 °F 21.9 °F 69% 30.07 in 10.0 mi WSW 11.5 mph 18.4 mph 0.00 in   Overcast
6:53 PM 30.9 °F 23.5 °F 23.0 °F 72% 30.09 in 10.0 mi WSW 8.1 mph - N/A   Overcast
7:53 PM 32.0 °F 25.6 °F 23.0 °F 69% 30.10 in 10.0 mi WSW 6.9 mph - N/A   Overcast
8:53 PM 33.1 °F 26.1 °F 21.0 °F 61% 30.11 in 10.0 mi West 8.1 mph 16.1 mph N/A   Overcast
9:53 PM 33.1 °F 25.5 °F 21.9 °F 64% 30.11 in 10.0 mi West 9.2 mph - N/A   Overcast
10:53 PM 32.0 °F 24.8 °F 21.9 °F 66% 30.11 in 10.0 mi WSW 8.1 mph - N/A   Overcast
11:53 PM 32.0 °F 24.2 °F 21.9 °F 66% 30.11 in 10.0 mi WSW 9.2 mph - N/A   Overcast